Regional Weather Roundup
Issued by NWS

Home | Current Version | Previous Version | Text Only | Print | Product List | Glossary Off
Versions: 1 2 3 4 5 6 7 8 9 10 11 12 13 14 15 16 17 18 19 20 21 22 23 24 25 26 27 28 29 30 31 32 33 34 35 36 37 38 39 40 41 42 43 44 45 46 47 48 49 50

000
ASUS43 KMKX 242310
RWRWI

WISCONSIN REGIONAL WEATHER ROUNDUP
NATIONAL WEATHER SERVICE MILWAUKEE/SULLIVAN WI
600 PM CDT TUE APR 24 2018

NOTE: "FAIR" INDICATES FEW OR NO CLOUDS BELOW 12,000 FEET WITH NO
SIGNIFICANT WEATHER AND/OR OBSTRUCTIONS TO VISIBILITY.

WIZ001-002-006>008-014>016-023>028-250000-
NORTHWEST WISCONSIN

CITY           SKY/WX    TMP DP  RH WIND       PRES   REMARKS
SUPERIOR ARPT  FAIR      57  25  29 N12G20    30.17R
ASHLAND        FAIR      50  33  52 S6        30.18S
HAYWARD        FAIR      52  35  52 N6        30.17S
SIREN          FAIR      56  30  37 N10G18    30.18S
CUMBERLAND     FAIR      50  34  53 N14       30.17S
RICE LAKE      FAIR      53  35  50 N7        30.17F
CHETEK         CLOUDY    49  37  61 CALM      30.16S
LADYSMITH      LGT RAIN  47  37  68 N13       30.17R
EAU CLAIRE     CLOUDY    58  32  37 N15G24    30.12R
MENOMONIE      PTSUNNY   57  32  39 NW18G24   30.14R
NEW RICHMOND   FAIR      55  36  48 NW13      30.17F
OSCEOLA        FAIR      56  37  47 N13       30.20F
$$

WIZ003>005-009-010-017-018-250000-
NORTH CENTRAL WISCONSIN

CITY           SKY/WX    TMP DP  RH WIND       PRES   REMARKS
MANITOWISH WTR LGT RAIN  38  38 100 NE3       30.17S
ARBOR VITAE    CLOUDY    44  31  60 N16       30.15R
WOODRUFF       CLOUDY    44  31  60 N16       30.15R
RHINELANDER    CLOUDY    48  28  46 N10G23    30.12R
EAGLE RIVER    MIX PCPN  44  25  47 N14       30.14R
LAND O LAKES   LGT RAIN  42  29  59 N14G20    30.18R
PHILLIPS       DRIZZLE   43  32  66 N5        30.15S
TOMAHAWK       CLOUDY    49  28  43 N16G22    30.13R
MEDFORD        CLOUDY    52  32  46 N17G25    30.10R
MERRILL        CLOUDY    57  31  37 N17G25    30.08R
$$

WIZ029-030-035-036-043>047-250000-
CENTRAL WISCONSIN

CITY           SKY/WX    TMP DP  RH WIND       PRES   REMARKS
WAUSAU         CLOUDY    62  31  31 N14       30.03R
MOSINEE        PTSUNNY   63  32  31 N16       30.05R
MARSHFIELD     CLOUDY    63  36  36 N14       30.04R
STEVENS POINT  CLOUDY    62  34  35 N7        30.03S
WAUPACA        FAIR      68  29  23 NE6       30.01S
WAUTOMA        CLOUDY    68  31  25 NE7       30.00S
WISC RAPIDS    CLOUDY    65  36  34 N7        30.03R
CAMP DOUGLAS   NOT AVBL
$$

WIZ011>013-019>022-031-037>040-048>050-250000-
NORTHEAST WISCONSIN

CITY           SKY/WX    TMP DP  RH WIND       PRES   REMARKS
ANTIGO         CLOUDY    56  36  45 N15       30.05S
SHAWANO        PTSUNNY   60  31  33 E13       30.04S
OCONTO         CLOUDY    53  33  46 NE8       30.06R
STURGEON BAY   PTSUNNY   55  34  45 NE8       30.06R
GREEN BAY      PTSUNNY   54  37  52 NE21      30.04R
MANITOWOC      FAIR      59  48  67 VRB7      30.03F
APPLETON       MOSUNNY   64   9  11 E12       30.00S
CLINTONVILLE   FAIR      61  30  31 E6        30.03R
OSHKOSH        FAIR      65  36  34 NE9       30.01S
$$

WIZ032>034-041-042-053>061-250000-
SOUTHWEST WISCONSIN

CITY           SKY/WX    TMP DP  RH WIND       PRES   REMARKS
LA CROSSE      CLOUDY    69  37  30 N13       30.04R
SPARTA         CLOUDY    66  38  34 NW7       30.05R
VIROQUA        CLOUDY    65  41  41 N9        30.04R
BOSCOBEL       CLOUDY    72  35  25 NW8       30.00S
PRAIRIE DU CHI FAIR      70  32  24 N13       30.01S
PLATTEVILLE    FAIR      72  35  25 NW13      30.00S
$$

WIZ056-057-062-063-064-067-068-250000-
SOUTH CENTRAL WISCONSIN

CITY           SKY/WX    TMP DP  RH WIND       PRES   REMARKS
REEDSBURG      CLOUDY    69  35  29 N8        29.99S
BARABOO/DELLS  CLOUDY    69  29  22 N8        30.00S
LONE ROCK      CLOUDY    71  35  26 N10       29.99S
MINERAL POINT  FAIR      72  28  20 N10       30.00S
MADISON        FAIR      67  33  28 NE13      29.98R
MIDDLETON      FAIR      72  29  20 N9        29.99S
WATERTOWN      FAIR      66  30  26 N10       29.99S
MONROE         FAIR      70  28  21 N12       29.98S
JANESVILLE     MOSUNNY   72  14  11 N9        29.98R
$$

WIZ051-052-058>065-066-070>072-250000-
SOUTHEAST WISCONSIN

CITY           SKY/WX    TMP DP  RH WIND       PRES   REMARKS
MILWAUKEE      FAIR      56  47  71 NE8       30.01F
WAUKESHA       SUNNY     61  46  59 E8        30.00S
MILWAUKEE/TIMM MOSUNNY   57  45  62 E8        30.02S
RACINE         FAIR      56  47  71 NE9       30.02S
BURLINGTON     FAIR      65  46  49 E12       29.99R
KENOSHA        FAIR      59  47  64 E10       30.00S
FOND DU LAC    FAIR      65  35  33 NE12      30.01S
SHEBOYGAN      PTSUNNY   61  51  70 E9        30.01F
WEST BEND      FAIR      59  46  63 E9        30.01S
JUNEAU         FAIR      65  37  35 N6        30.01S
$$

LSZ147-162-250000-
LAKE SUPERIOR

STATION/POSITION TIME  TEMP    WIND        PRES    WAVE
                       AIR SEA DIR/SP/G            HT/PER
                 (UTC) (F)     (DEG/KT/KT) (MB)    (FT/S)
DEVILS ISLAND    2300   47     150/  6/  9 1022.5R
SAXON HARBOR     2240   49     170/  3/  7 1021.7S
$$

LMZ867-665-643>646-250000-
LAKE MICHIGAN

STATION/POSITION TIME  TEMP    WIND        PRES    WAVE
                       AIR SEA DIR/SP/G            HT/PER
                 (UTC) (F)     (DEG/KT/KT) (MB)    (FT/S)
NORTHPORT PIER   2240   45                 1017.9F
KEWAUNEE LAKESHO 2242   45      20/  4/  6 1017.0R
SHEBOYGAN LAKESH 2300   45      10/  8/  9 1016.9F
PORT WASHINGTON  2230   47      40/  6/  8 1017.6S
MILWAUKEE LAKESH 2250   42      40/ 13/ 14   N/A
KENOSHA   LAKESH 2300   44                 1015.9
$$

TC  - TEMPERATURE IN CELSIUS
VSB - VISIBILITY IN STATUTE MILES
WCI - WIND CHILL INDEX
HX  - HEAT INDEX





USA.gov is the U.S. government's official web portal to all federal, state and local government web resources and services.